Location: Sabalos
(43.2860°N, 0.1414°E)
Time: 10:23:01
(UTC+00:00)

Cosmos 2360 Rocket - Pass Details

Date: 05 July 2020
Orbit: 832 x 847 km, 71.0° (Epoch: 05 August)

Event Time Altitude Azimuth Distance (km) Brightness Sun altitude
Rises 20:29:28 0° 195° (SSW) 3,371 5.1 -7.7°
Reaches altitude 10° 20:31:54 10° 193° (SSW) 2,443 4.3 -8.0°
Maximum altitude 20:37:27 69° 111° (ESE) 899 2.2 -8.7°
Drops below altitude 10° 20:43:05 10° 29° (NNE) 2,470 4.8 -9.5°
Sets 20:45:33 0° 27° (NNE) 3,410 5.6 -9.8°
